[[{"header":{"parameterUnit":"m.s-1","parameterCategory":1,"la1":30.2991,"la2":30.254,"lo1":-89.0895,"lo2":-89.0444,"dy":0.0017,"dx":0.0017,"nx":28,"ny":28,"refTime":"2025-08-17T09:00:00:Z","depth":0,"parameterNumber":2,"parameterNumberName":"U-component_of_WINDS"},"data":[0,0,0,0,0,0,0,0,0,0,0,0,0,0,0,0,0,0,0,0,0,0,0,0,0,0,0,0,0,0,0,0,0,0,0,0,0,0,0,0,0,0,0,0,0,0,0,0,0,0,0,0,0,0,0,0,0,0,0.3033,0.3033,0,0.2987,0.2986,0.2985,0.2953,0.2953,0.2953,0.2952,0.2904,0.2903,0.2902,0,0,0,0,0,0,0,0,0,0,0,0,0,0.3092,0.3091,0.3033,0.3033,0.3032,0.2987,0.2986,0.2985,0.2953,0.2953,0.2953,0.2952,0.2904,0.2903,0.2902,0,0,0,0,0,0,0,0,0,0,0,0,0,0.3058,0.3091,0.3033,0.3011,0.3008,0.2987,0.2986,0.2985,0.2953,0.2953,0.2953,0.2952,0.2905,0.2903,0.2902,0.2899,0,0,0.2897,0.2896,0,0,0,0,0,0,0,0,0.306,0.3056,0.3014,0.3012,0.3009,0.2975,0.2989,0.2956,0.2953,0.2974,0.2952,0.2952,0.2928,0.2924,0.2916,0.2897,0.2895,0.2897,0.2896,0.2895,0.2894,0,0,0,0,0,0,0,0.3062,0.3058,0.3015,0.3014,0.3011,0.3002,0.2997,0.2983,0.2954,0.2972,0.297,0.2965,0.2926,0.2918,0.2915,0.2894,0.2897,0.2895,0.2894,0.2894,0.2867,0.2867,0,0,0,0,0,0,0.3069,0.306,0.3016,0.3013,0.3034,0.3001,0.2995,0.2987,0.2954,0.2948,0.2965,0.2963,0.2921,0.2917,0.2913,0.2906,0.2895,0.2893,0.2892,0.2866,0.2867,0.2867,0,0,0,0,0,0,0.307,0.3065,0.3018,0.3036,0.3029,0.3,0.2991,0.2986,0.2977,0.2948,0.2943,0.2962,0.292,0.2915,0.2902,0.2904,0.2893,0.2891,0.2866,0.2867,0.2867,0.2894,0,0,0,0,0,0,0.3072,0.3066,0.3065,0.3036,0.3028,0.3009,0.2991,0.2985,0.2975,0.2972,0.2944,0.2939,0.292,0.2905,0.2901,0.2902,0.289,0.2866,0.2866,0.2867,0.2892,0.2895,0.2897,0,0,0,0,0,0.3074,0.3075,0.3065,0.306,0.3027,0.3009,0.3004,0.2983,0.2975,0.2974,0.2954,0.294,0.2905,0.2904,0.2899,0.2899,0.2866,0.2866,0.2867,0.2891,0.2894,0.2897,0,0,0,0,0,0,0.3105,0.3071,0.306,0.3051,0.3033,0.3004,0.3001,0.2987,0.2971,0.2969,0.2942,0.2936,0.2925,0.2911,0.291,0.2894,0.2883,0.2883,0.2904,0.2906,0.2908,0.2912,0.2889,0,0,0,0,0,0.3111,0.31,0.307,0.3065,0.3057,0.3031,0.3022,0.3007,0.2987,0.2979,0.2959,0.294,0.2924,0.2914,0.2898,0.289,0.2882,0.2888,0.289,0.2892,0.2892,0.2884,0.2886,0.2869,0.2869,0.2869,0,0,0.3123,0.3103,0.3098,0.3071,0.3055,0.3043,0.3025,0.3013,0.3003,0.2977,0.2963,0.2947,0.2924,0.2912,0.2906,0.29,0.2895,0.2893,0.2894,0.2893,0.2885,0.2886,0.2888,0.2869,0.2869,0.2869,0,0,0.3139,0.3123,0.3117,0.3101,0.3077,0.3059,0.3057,0.3029,0.3018,0.3003,0.2982,0.297,0.2944,0.2928,0.2916,0.2923,0.2908,0.2918,0.293,0.2923,0.2924,0.2925,0.2926,0.2927,0.2918,0.2918,0.2918,0,0.3157,0.3138,0.3115,0.3104,0.3092,0.3067,0.306,0.3045,0.3017,0.3009,0.3003,0.2968,0.2951,0.2934,0.2936,0.2927,0.2923,0.2921,0.2926,0.2927,0.2927,0.2928,0.2928,0.292,0.2919,0.2919,0.2919,0,0.3161,0.3148,0.3146,0.3119,0.3107,0.3097,0.3072,0.3062,0.3047,0.3029,0.3013,0.2991,0.297,0.2964,0.295,0.2945,0.2942,0.2931,0.292,0.293,0.293,0.2931,0.2921,0.2921,0.2921,0.292,0,0,0.3196,0.3155,0.3154,0.3141,0.3112,0.3101,0.309,0.3068,0.306,0.3041,0.3029,0.3007,0.2996,0.2983,0.2966,0.296,0.2964,0.2949,0.2948,0.2952,0.2955,0.2963,0.2964,0.2954,0.2954,0.2954,0.2956,0,0.3206,0.3185,0.3163,0.315,0.3136,0.3112,0.3101,0.3082,0.3064,0.305,0.303,0.3014,0.3002,0.2993,0.2986,0.2965,0.2964,0.2965,0.2942,0.2942,0.2948,0.2964,0.2973,0.2976,0.2956,0.2956,0.2956,0,0.3216,0.3197,0.3183,0.3153,0.3146,0.3138,0.3115,0.3102,0.3078,0.3066,0.305,0.3032,0.3017,0.3007,0.2985,0.2986,0.2975,0.2963,0.2963,0.296,0.295,0.296,0.2977,0.2978,0.2956,0.2956,0.2956,0,0.3241,0.3213,0.32,0.3189,0.3155,0.3149,0.3134,0.311,0.3097,0.3077,0.3069,0.3047,0.3035,0.3018,0.2994,0.2989,0.2974,0.2963,0.2962,0.2963,0.2961,0.2961,0.2975,0.2955,0.2955,0.2955,0.2955,0,0.3255,0.3246,0.321,0.3203,0.3192,0.3165,0.3155,0.3138,0.3116,0.3103,0.308,0.3068,0.3037,0.3021,0.3002,0.2986,0.2981,0.2969,0.2964,0.2971,0.2973,0.2964,0.2963,0.2955,0.2955,0.2955,0.2955,0,0.3281,0.3257,0.3241,0.3209,0.3201,0.3194,0.3166,0.3156,0.3137,0.3121,0.3115,0.3085,0.3065,0.3039,0.301,0.2997,0.2983,0.2976,0.2991,0.2988,0.2989,0.2989,0.2997,0.2997,0.2977,0.2978,0.2978,0,0.3291,0.3284,0.3251,0.3241,0.3227,0.3211,0.3198,0.3171,0.3158,0.313,0.3123,0.3101,0.3082,0.305,0.3025,0.3002,0.2994,0.2998,0.299,0.2997,0.2992,0.2993,0.2991,0.3,0.3001,0.3001,0.3001,0,0.3311,0.3299,0.3282,0.326,0.3245,0.3227,0.3207,0.32,0.3168,0.3155,0.3134,0.3119,0.3089,0.3067,0.3041,0.3024,0.3007,0.3004,0.3002,0.3009,0.3018,0.3012,0.2996,0.3004,0.3004,0.3003,0.3003,0.3003,0.3329,0.3321,0.3296,0.3277,0.3259,0.3241,0.323,0.3209,0.3191,0.3165,0.315,0.3129,0.3103,0.3066,0.3049,0.3032,0.3025,0.3023,0.3023,0.3023,0.3024,0.3021,0.3027,0.3027,0.3027,0.3026,0.3026,0,0.3346,0.3329,0.3312,0.3285,0.3269,0.3255,0.3231,0.3219,0.3201,0.3179,0.316,0.3135,0.3113,0.3085,0.306,0.3051,0.3043,0.3046,0.3046,0.3042,0.3032,0.3035,0.3053,0.3053,0.3053,0.3053,0.3053,0.3053,0.3354,0.3338,0.3323,0.3298,0.328,0.326,0.3248,0.323,0.3212,0.3185,0.3167,0.3149,0.3123,0.3097,0.3075,0.3067,0.3059,0.3064,0.3054,0.3045,0.3043,0.3041,0.3043,0.3062,0.3063,0.3065,0.3065,0.3065]},{"header":{"parameterUnit":"m.s-1","parameterCategory":1,"la1":30.2991,"la2":30.254,"lo1":-89.0895,"lo2":-89.0444,"dy":0.0017,"dx":0.0017,"nx":28,"ny":28,"refTime":"2025-08-17T09:00:00:Z","depth":0,"parameterNumber":3,"parameterNumberName":"V-component_of_WINDS"},"data":[0,0,0,0,0,0,0,0,0,0,0,0,0,0,0,0,0,0,0,0,0,0,0,0,0,0,0,0,0,0,0,0,0,0,0,0,0,0,0,0,0,0,0,0,0,0,0,0,0,0,0,0,0,0,0,0,0,0,3.2849,3.2849,0,3.2803,3.2803,3.2802,3.2788,3.2788,3.2789,3.2789,3.2734,3.2732,3.2731,0,0,0,0,0,0,0,0,0,0,0,0,0,3.2919,3.2918,3.285,3.2849,3.2848,3.2803,3.2803,3.2802,3.2788,3.2788,3.2789,3.2789,3.2735,3.2733,3.2731,0,0,0,0,0,0,0,0,0,0,0,0,0,3.2882,3.2918,3.285,3.2836,3.2835,3.2803,3.2803,3.2802,3.2788,3.2788,3.2789,3.2789,3.2735,3.2733,3.273,3.2707,0,0,3.2722,3.2721,0,0,0,0,0,0,0,0,3.2884,3.288,3.2839,3.2837,3.2835,3.2802,3.2807,3.277,3.2788,3.2805,3.2789,3.2789,3.2756,3.2752,3.2742,3.2704,3.2702,3.2722,3.2721,3.272,3.2719,0,0,0,0,0,0,0,3.2887,3.2882,3.2831,3.2838,3.2836,3.283,3.2825,3.28,3.2779,3.2804,3.2803,3.2798,3.2755,3.2744,3.274,3.2701,3.2722,3.272,3.2718,3.2717,3.264,3.2639,0,0,0,0,0,0,3.2893,3.2884,3.2832,3.283,3.2862,3.2829,3.2823,3.2812,3.2779,3.2775,3.2798,3.2797,3.2748,3.2743,3.2738,3.2708,3.272,3.2717,3.2716,3.2641,3.264,3.2639,0,0,0,0,0,0,3.2894,3.2888,3.2834,3.2856,3.2849,3.2827,3.2815,3.2811,3.2801,3.2774,3.277,3.2791,3.2749,3.2742,3.2715,3.2706,3.2716,3.2714,3.2641,3.264,3.264,3.2647,0,0,0,0,0,0,3.2897,3.2889,3.2882,3.2857,3.2848,3.2814,3.2814,3.281,3.2797,3.2796,3.2767,3.2763,3.2748,3.2719,3.2712,3.2702,3.2712,3.2642,3.2641,3.264,3.2647,3.2646,3.2646,0,0,0,0,0,3.2899,3.2884,3.2881,3.2875,3.2839,3.2813,3.2808,3.2794,3.2796,3.2787,3.2771,3.2764,3.2708,3.2716,3.2709,3.2698,3.2642,3.2641,3.264,3.2648,3.2647,3.2646,0,0,0,0,0,0,3.2907,3.2881,3.2877,3.2854,3.2837,3.2811,3.28,3.2794,3.2773,3.2773,3.2754,3.2748,3.2721,3.2707,3.2716,3.2672,3.2675,3.2672,3.2683,3.2682,3.2681,3.2684,3.271,0,0,0,0,0,3.2906,3.289,3.2867,3.2849,3.2841,3.2822,3.281,3.2801,3.2781,3.2772,3.2754,3.2732,3.2709,3.2695,3.2673,3.2645,3.2638,3.2634,3.2633,3.2633,3.263,3.2613,3.261,3.2635,3.2635,3.2635,0,0,3.2904,3.2888,3.2878,3.285,3.2835,3.2817,3.2815,3.2796,3.2781,3.2769,3.2742,3.2728,3.2702,3.2675,3.2661,3.2661,3.2622,3.2631,3.2631,3.2628,3.2611,3.2609,3.2607,3.2635,3.2635,3.2635,0,0,3.289,3.2877,3.2861,3.2846,3.2824,3.2812,3.2808,3.2783,3.2774,3.2748,3.2737,3.2718,3.2681,3.2663,3.2648,3.2628,3.262,3.2621,3.2616,3.2599,3.2597,3.2595,3.2586,3.2583,3.2619,3.2619,3.2619,0,3.289,3.2864,3.2852,3.2833,3.282,3.2811,3.2792,3.2777,3.2748,3.2738,3.274,3.2692,3.2674,3.2641,3.2637,3.2626,3.2619,3.2624,3.2599,3.2597,3.2595,3.2586,3.2583,3.2619,3.2619,3.2619,3.2619,0,3.2863,3.2845,3.2834,3.2808,3.2794,3.2775,3.2759,3.2745,3.2737,3.2724,3.2696,3.2675,3.2648,3.2639,3.263,3.2605,3.2605,3.2603,3.2605,3.2593,3.2584,3.2581,3.2619,3.2619,3.2619,3.2619,0,0,3.2852,3.2822,3.2817,3.2805,3.278,3.2765,3.2745,3.2721,3.2709,3.2689,3.267,3.2638,3.2636,3.262,3.2609,3.2594,3.2577,3.2594,3.2593,3.259,3.2545,3.2546,3.2543,3.2573,3.2572,3.2571,3.2547,0,3.2835,3.2801,3.279,3.2761,3.2743,3.2733,3.2715,3.2696,3.2683,3.2664,3.2648,3.2626,3.2626,3.2616,3.2601,3.2583,3.2568,3.2585,3.2552,3.2551,3.2558,3.2539,3.254,3.2518,3.2544,3.2543,3.2543,0,3.2809,3.2792,3.2762,3.2738,3.273,3.2715,3.2691,3.2674,3.2652,3.2643,3.2625,3.2615,3.2591,3.2595,3.256,3.2572,3.2558,3.2547,3.2545,3.254,3.2545,3.2532,3.2511,3.2507,3.2538,3.2538,3.2538,0,3.2803,3.2771,3.2749,3.2739,3.2712,3.2701,3.2688,3.2667,3.2653,3.2631,3.2621,3.2597,3.2583,3.2562,3.2545,3.255,3.2511,3.2514,3.25,3.2501,3.2491,3.2492,3.2466,3.2485,3.2485,3.2485,3.2485,0,3.2784,3.2765,3.2746,3.2732,3.271,3.2696,3.2674,3.2661,3.2642,3.2623,3.2612,3.2594,3.2573,3.2552,3.2538,3.251,3.2504,3.2494,3.249,3.2494,3.2495,3.2484,3.2484,3.2484,3.2484,3.2485,3.2485,0,3.2772,3.2759,3.2734,3.271,3.2704,3.2689,3.2667,3.2652,3.2639,3.2615,3.2609,3.2587,3.2561,3.2542,3.2508,3.2499,3.2468,3.2465,3.2476,3.2474,3.2461,3.2462,3.2426,3.242,3.2444,3.2444,3.2444,0,3.276,3.2746,3.2722,3.271,3.2698,3.2679,3.2665,3.265,3.2635,3.2609,3.2596,3.257,3.2549,3.2507,3.2486,3.246,3.2455,3.2444,3.2451,3.2455,3.2453,3.2453,3.2451,3.2443,3.2443,3.2442,3.2442,0,3.274,3.2734,3.2716,3.2695,3.2679,3.2661,3.2643,3.2633,3.2614,3.2598,3.2573,3.2556,3.2522,3.2495,3.2467,3.2451,3.2442,3.2441,3.2436,3.2439,3.2446,3.244,3.2472,3.2441,3.2441,3.2441,3.2441,3.2441,3.2726,3.2713,3.2694,3.2673,3.2659,3.2642,3.2626,3.2612,3.2591,3.2564,3.2556,3.2529,3.2505,3.2467,3.2451,3.2428,3.2428,3.2421,3.2419,3.2417,3.2417,3.2451,3.2422,3.2422,3.2422,3.2422,3.2422,0,3.2704,3.2692,3.2673,3.2649,3.2632,3.2629,3.2608,3.2593,3.2571,3.2551,3.253,3.25,3.2474,3.2452,3.2424,3.241,3.2405,3.2403,3.2403,3.2399,3.2419,3.2425,3.2407,3.2407,3.2407,3.2407,3.2407,3.2407,3.2691,3.2667,3.2659,3.2627,3.2614,3.259,3.2578,3.2561,3.2545,3.2513,3.2493,3.2479,3.2457,3.2428,3.2403,3.2397,3.2386,3.2384,3.2377,3.2396,3.2398,3.2399,3.2405,3.2383,3.2383,3.2358,3.2358,3.2358]}]]